4XAIA LLHA-LLHA

Flight info

Callsign 4XAIA
Flight time 0h 22m
Altitude 1200
Route EZORIM
Aircraft H60/L-S/L

Departure

Time 2026-04-24 20:59
Airport Uri Michaeli Haifa International Airport (LLHA)

Arrival

Time 2026-04-24 21:21
Airport Uri Michaeli Haifa International Airport (LLHA)
Time Latitude Longitude Altitude Speed Heading
2026-04-24 20:37 32.81541 35.04308 25 ft 0 kts 250°
2026-04-24 20:58 32.81475 35.04210 51 ft 34 kts 278°
2026-04-24 20:59 32.81805 35.04085 706 ft 88 kts 346°
2026-04-24 20:59 32.82273 35.04458 686 ft 124 kts 132°
2026-04-24 20:59 32.81432 35.05349 982 ft 185 kts 136°
2026-04-24 20:59 32.80388 35.06405 1221 ft 195 kts 131°
2026-04-24 21:00 32.79412 35.07431 846 ft 192 kts 160°
2026-04-24 21:00 32.78442 35.06995 933 ft 151 kts 225°
2026-04-24 21:00 32.77911 35.05985 1098 ft 157 kts 276°
2026-04-24 21:00 32.78626 35.05373 1309 ft 141 kts 354°
2026-04-24 21:01 32.79605 35.04963 938 ft 137 kts 339°
2026-04-24 21:01 32.80375 35.04648 146 ft 109 kts 342°
2026-04-24 21:01 32.81102 35.04331 68 ft 113 kts 343°
2026-04-24 21:01 32.81845 35.04037 578 ft 121 kts 343°
2026-04-24 21:02 32.82201 35.04770 942 ft 151 kts 115°
2026-04-24 21:02 32.81437 35.05827 1358 ft 182 kts 124°
2026-04-24 21:02 32.80632 35.05919 840 ft 162 kts 240°
2026-04-24 21:02 32.80480 35.04629 346 ft 145 kts 305°
2026-04-24 21:03 32.81502 35.04163 190 ft 179 kts 341°
2026-04-24 21:03 32.82438 35.04388 919 ft 150 kts 48°
2026-04-24 21:03 32.82243 35.05619 1360 ft 170 kts 128°
2026-04-24 21:03 32.81152 35.06369 1945 ft 196 kts 148°
2026-04-24 21:04 32.79921 35.07278 1727 ft 221 kts 145°
2026-04-24 21:04 32.78652 35.07061 1385 ft 207 kts 230°
2026-04-24 21:04 32.77981 35.05564 1152 ft 198 kts 289°
2026-04-24 21:04 32.78893 35.05104 1359 ft 165 kts
2026-04-24 21:05 32.80004 35.04822 465 ft 139 kts 339°
2026-04-24 21:05 32.80682 35.04517 62 ft 76 kts 345°
2026-04-24 21:05 32.81332 35.04200 960 ft 133 kts 341°
2026-04-24 21:05 32.82375 35.03956 852 ft 158 kts 16°
2026-04-24 21:06 32.82984 35.04986 1040 ft 166 kts 85°
2026-04-24 21:06 32.82362 35.06190 1242 ft 187 kts 133°
2026-04-24 21:06 32.81365 35.07041 1841 ft 172 kts 153°
2026-04-24 21:06 32.80229 35.07605 2256 ft 192 kts 156°
2026-04-24 21:07 32.78959 35.07505 1521 ft 188 kts 221°
2026-04-24 21:07 32.78074 35.06312 1064 ft 194 kts 251°
2026-04-24 21:07 32.78489 35.05387 1019 ft 129 kts 342°
2026-04-24 21:07 32.79273 35.05155 904 ft 95 kts 343°
2026-04-24 21:08 32.79857 35.04885 659 ft 82 kts 342°
2026-04-24 21:08 32.80261 35.04701 373 ft 72 kts 346°
2026-04-24 21:08 32.80974 35.04370 497 ft 151 kts 341°
2026-04-24 21:08 32.82071 35.03830 714 ft 190 kts 334°
2026-04-24 21:09 32.82955 35.04222 842 ft 165 kts 84°
2026-04-24 21:09 32.82184 35.05256 1281 ft 182 kts 134°
2026-04-24 21:09 32.81076 35.06200 1600 ft 195 kts 153°
2026-04-24 21:09 32.80038 35.07178 1686 ft 193 kts 142°
2026-04-24 21:10 32.79172 35.07392 1332 ft 92 kts 220°
2026-04-24 21:10 32.78649 35.06910 1421 ft 99 kts 225°
2026-04-24 21:10 32.78190 35.06374 1129 ft 90 kts 239°
2026-04-24 21:10 32.78384 35.05625 985 ft 133 kts 316°
2026-04-24 21:11 32.79052 35.05192 1236 ft 59 kts 32°
2026-04-24 21:11 32.79603 35.05009 1308 ft 62 kts 346°
2026-04-24 21:11 32.79878 35.04870 1081 ft 93 kts 345°
2026-04-24 21:11 32.80923 35.04434 165 ft 171 kts 345°
2026-04-24 21:12 32.82082 35.03956 764 ft 158 kts 28°
2026-04-24 21:12 32.82555 35.04799 1299 ft 140 kts 114°
2026-04-24 21:12 32.81757 35.05893 1468 ft 197 kts 132°
2026-04-24 21:12 32.80634 35.06992 1542 ft 211 kts 141°
2026-04-24 21:13 32.79350 35.07484 1242 ft 187 kts 197°
2026-04-24 21:13 32.78246 35.06444 1030 ft 226 kts 227°
2026-04-24 21:13 32.78435 35.05273 806 ft 176 kts 339°
2026-04-24 21:13 32.79715 35.04912 781 ft 203 kts 349°
2026-04-24 21:14 32.81093 35.04329 384 ft 212 kts 342°
2026-04-24 21:14 32.82125 35.03916 1711 ft 139 kts 345°
2026-04-24 21:14 32.82934 35.04724 1467 ft 182 kts 76°
2026-04-24 21:14 32.82165 35.05919 1328 ft 210 kts 142°
2026-04-24 21:15 32.80815 35.06754 1276 ft 221 kts 156°
2026-04-24 21:15 32.79368 35.07365 1119 ft 211 kts 185°
2026-04-24 21:15 32.78252 35.06376 853 ft 198 kts 265°
2026-04-24 21:15 32.78861 35.05124 519 ft 190 kts 339°
2026-04-24 21:16 32.80206 35.04709 282 ft 216 kts 344°
2026-04-24 21:16 32.81537 35.04144 476 ft 189 kts 343°
2026-04-24 21:16 32.82625 35.04443 848 ft 174 kts 64°
2026-04-24 21:16 32.82129 35.05674 1171 ft 190 kts 134°
2026-04-24 21:17 32.81040 35.06764 1237 ft 221 kts 142°
2026-04-24 21:17 32.79778 35.07626 1672 ft 214 kts 156°
2026-04-24 21:17 32.78480 35.06980 1079 ft 220 kts 226°
2026-04-24 21:17 32.78290 35.05699 1075 ft 168 kts 321°
2026-04-24 21:18 32.79454 35.04923 696 ft 207 kts 340°
2026-04-24 21:18 32.80597 35.05239 942 ft 178 kts 48°
2026-04-24 21:18 32.80832 35.06735 1253 ft 199 kts 77°
2026-04-24 21:18 32.80031 35.07891 1018 ft 188 kts 156°
2026-04-24 21:19 32.78795 35.07365 938 ft 206 kts 224°
2026-04-24 21:19 32.78141 35.05900 755 ft 171 kts 292°
2026-04-24 21:19 32.78203 35.05428 565 ft 119 kts 102°
2026-04-24 21:19 32.77948 35.05955 983 ft 129 kts 89°
2026-04-24 21:20 32.79714 35.04975 328 ft 179 kts 351°
2026-04-24 21:20 32.80838 35.04465 126 ft 174 kts 358°
2026-04-24 21:20 32.81107 35.04355 682 ft 66 kts 294°
2026-04-24 21:21 32.81270 35.04157 160 ft 37 kts 35°
2026-04-24 21:21 32.81174 35.04310 230 ft 73 kts 226°
2026-04-24 21:21 32.81065 35.04389 84 ft 52 kts 335°
2026-04-24 21:21 32.81040 35.04041 166 ft 36 kts 59°
2026-04-24 21:22 32.81074 35.04400 349 ft 35 kts 330°
2026-04-24 21:22 32.81234 35.04205 75 ft 37 kts 330°
2026-04-24 21:22 32.81377 35.04134 28 ft 0 kts 341°